JBU8 KJFK-EGLL

Flight info

Callsign JBU8
Flight time N/A
Altitude 35000
Route MERIT DCT HFD DCT PUT DCT TOPPS N683B NEEKO/M079F370 DCT 54N050W 55N040W 55N030W 54N020W DCT MALOT DCT GISTI/N0459F370 DCT EVRIN DCT JETZI DCT AMFUL DCT ORZEB/N0409F230 P2 SIRIC
Aircraft A21N/M-SDE2E3FGHIRWXY/LB1

Departure

Time 2026-05-01 09:02
Airport John F. Kennedy International Airport (KJFK)

Arrival

Time N/A
Airport London Heathrow Airport (EGLL)
Time Latitude Longitude Altitude Speed Heading
2026-05-01 08:02 40.64533 -73.77237 28 ft 9 kts
2026-05-01 08:50 40.64522 -73.77238 28 ft 4 kts
2026-05-01 08:50 40.64505 -73.77238 28 ft 4 kts 350°
2026-05-01 08:50 40.64484 -73.77221 28 ft 4 kts 334°
2026-05-01 08:51 40.64475 -73.77216 28 ft 4 kts 69°
2026-05-01 08:51 40.64473 -73.77249 28 ft 4 kts 90°
2026-05-01 08:51 40.64473 -73.77258 28 ft 0 kts 90°
2026-05-01 08:54 40.64473 -73.77255 28 ft 2 kts 91°
2026-05-01 08:54 40.64461 -73.77208 28 ft 7 kts 119°
2026-05-01 08:55 40.64441 -73.77142 28 ft 9 kts 104°
2026-05-01 08:55 40.64435 -73.77110 28 ft 0 kts 104°
2026-05-01 08:55 40.64433 -73.77105 28 ft 2 kts 103°
2026-05-01 08:55 40.64425 -73.77065 27 ft 7 kts 102°
2026-05-01 08:56 40.64393 -73.77022 27 ft 9 kts 188°
2026-05-01 08:56 40.64324 -73.77069 28 ft 13 kts 210°
2026-05-01 08:56 40.64234 -73.77137 29 ft 16 kts 211°
2026-05-01 08:56 40.64136 -73.77216 30 ft 17 kts 211°
2026-05-01 08:57 40.64032 -73.77298 27 ft 18 kts 211°
2026-05-01 08:57 40.63923 -73.77383 27 ft 19 kts 211°
2026-05-01 08:57 40.63810 -73.77471 24 ft 19 kts 211°
2026-05-01 08:57 40.63693 -73.77563 25 ft 20 kts 211°
2026-05-01 08:58 40.63586 -73.77646 29 ft 17 kts 211°
2026-05-01 08:58 40.63482 -73.77727 29 ft 18 kts 210°
2026-05-01 08:58 40.63397 -73.77798 32 ft 14 kts 218°
2026-05-01 08:58 40.63330 -73.77827 32 ft 11 kts 151°
2026-05-01 08:59 40.63278 -73.77739 33 ft 14 kts 122°
2026-05-01 08:59 40.63224 -73.77622 34 ft 16 kts 121°
2026-05-01 08:59 40.63165 -73.77491 35 ft 17 kts 121°
2026-05-01 08:59 40.63103 -73.77354 33 ft 18 kts 120°
2026-05-01 09:00 40.63037 -73.77209 32 ft 19 kts 121°
2026-05-01 09:00 40.62986 -73.77097 29 ft 1 kts 126°
2026-05-01 09:00 40.62967 -73.77088 28 ft 5 kts 177°
2026-05-01 09:00 40.62918 -73.77109 29 ft 10 kts 208°
2026-05-01 09:01 40.62854 -73.77158 29 ft 11 kts 210°
2026-05-01 09:01 40.62826 -73.77241 26 ft 13 kts 301°
2026-05-01 09:01 40.62899 -73.77398 33 ft 41 kts 301°
2026-05-01 09:01 40.63170 -73.77992 33 ft 109 kts 301°
2026-05-01 09:02 40.63666 -73.79081 44 ft 162 kts 302°
2026-05-01 09:02 40.64234 -73.80346 634 ft 161 kts 300°
2026-05-01 09:02 40.64582 -73.81766 1257 ft 170 kts 279°
2026-05-01 09:02 40.64337 -73.83382 1655 ft 198 kts 246°
2026-05-01 09:03 40.63328 -73.84780 2120 ft 220 kts 225°
2026-05-01 09:03 40.62146 -73.86087 2802 ft 225 kts 225°
2026-05-01 09:03 40.60958 -73.87417 3582 ft 224 kts 222°
2026-05-01 09:03 40.59588 -73.88380 4377 ft 227 kts 195°
2026-05-01 09:04 40.57962 -73.88292 4839 ft 250 kts 164°
2026-05-01 09:04 40.56298 -73.87342 5239 ft 270 kts 156°
2026-05-01 09:04 40.54582 -73.86249 5938 ft 276 kts 159°
2026-05-01 09:04 40.52751 -73.85569 6726 ft 274 kts 175°
2026-05-01 09:05 40.50852 -73.85257 7480 ft 277 kts 176°
2026-05-01 09:05 40.48986 -73.84515 8196 ft 288 kts 154°
2026-05-01 09:05 40.47488 -73.82722 8864 ft 300 kts 126°
2026-05-01 09:05 40.46524 -73.80266 9548 ft 307 kts 114°
2026-05-01 09:06 40.45735 -73.77676 10119 ft 313 kts 113°
2026-05-01 09:06 40.44900 -73.74972 10455 ft 327 kts 114°
2026-05-01 09:06 40.43994 -73.72154 10721 ft 343 kts 115°
2026-05-01 09:06 40.43006 -73.69177 10968 ft 359 kts 116°
2026-05-01 09:07 40.41990 -73.66143 11211 ft 375 kts 116°
2026-05-01 09:07 40.40843 -73.62947 11439 ft 390 kts 120°
2026-05-01 09:07 40.39584 -73.59777 11665 ft 404 kts 120°
2026-05-01 09:07 40.38230 -73.56414 11887 ft 418 kts 120°
2026-05-01 09:08 40.36860 -73.52990 12090 ft 429 kts 120°
2026-05-01 09:08 40.35493 -73.49544 12459 ft 434 kts 120°
2026-05-01 09:08 40.34080 -73.45969 12893 ft 437 kts 120°
2026-05-01 09:08 40.32693 -73.42470 13343 ft 441 kts 120°
2026-05-01 09:09 40.31271 -73.38897 13779 ft 444 kts 120°
2026-05-01 09:09 40.29835 -73.35301 14125 ft 447 kts 121°
2026-05-01 09:09 40.28388 -73.31681 14491 ft 449 kts 121°
2026-05-01 09:09 40.26936 -73.28047 14894 ft 452 kts 120°
2026-05-01 09:10 40.25474 -73.24389 15368 ft 454 kts 121°
2026-05-01 09:10 40.24010 -73.20718 15853 ft 457 kts 120°
2026-05-01 09:10 40.22535 -73.17021 16294 ft 459 kts 121°
2026-05-01 09:10 40.21050 -73.13311 16773 ft 462 kts 121°
2026-05-01 09:11 40.19548 -73.09578 17197 ft 465 kts 121°
2026-05-01 09:11 40.18038 -73.05830 17631 ft 467 kts 121°
2026-05-01 09:11 40.16523 -73.02058 18062 ft 470 kts 121°
2026-05-01 09:11 40.14996 -72.98268 18432 ft 473 kts 121°
2026-05-01 09:12 40.13440 -72.94399 18749 ft 475 kts 121°
2026-05-01 09:12 40.11901 -72.90572 19084 ft 478 kts 121°
2026-05-01 09:12 40.10366 -72.86773 19411 ft 480 kts 121°
2026-05-01 09:12 40.08801 -72.82904 19731 ft 483 kts 121°
2026-05-01 09:13 40.07230 -72.79024 20039 ft 486 kts 121°
2026-05-01 09:13 40.05562 -72.75180 20321 ft 487 kts 124°
2026-05-01 09:13 40.03781 -72.71407 20601 ft 490 kts 126°
2026-05-01 09:13 40.01978 -72.67623 20851 ft 494 kts 126°
2026-05-01 09:14 40.00163 -72.63799 21145 ft 497 kts 126°
2026-05-01 09:14 39.98343 -72.59948 21470 ft 500 kts 125°
2026-05-01 09:14 39.96516 -72.56070 21832 ft 503 kts 126°
2026-05-01 09:14 39.94678 -72.52171 22154 ft 506 kts 126°
2026-05-01 09:15 39.92833 -72.48261 22454 ft 508 kts 126°
2026-05-01 09:15 39.90973 -72.44329 22749 ft 511 kts 126°
2026-05-01 09:15 39.89102 -72.40383 23043 ft 513 kts 126°
2026-05-01 09:15 39.87221 -72.36419 23333 ft 516 kts 126°
2026-05-01 09:16 39.85331 -72.32435 23649 ft 517 kts 126°
2026-05-01 09:16 39.83444 -72.28466 24024 ft 516 kts 126°
2026-05-01 09:16 39.81555 -72.24503 24392 ft 514 kts 126°
2026-05-01 09:17 39.77798 -72.16626 25212 ft 510 kts 126°
2026-05-01 09:17 39.75932 -72.12717 25590 ft 509 kts 126°
2026-05-01 09:17 39.72201 -72.04922 26357 ft 506 kts 126°
2026-05-01 09:18 39.70338 -72.01046 26639 ft 506 kts 126°
2026-05-01 09:18 39.66611 -71.93287 27300 ft 506 kts 126°
2026-05-01 09:19 39.62891 -71.85569 28078 ft 502 kts 126°
2026-05-01 09:19 39.61044 -71.81739 28467 ft 500 kts 126°
2026-05-01 09:19 39.59199 -71.77924 28816 ft 499 kts 126°
2026-05-01 09:20 39.55519 -71.70317 29502 ft 497 kts 126°
2026-05-01 09:20 39.51846 -71.62761 30116 ft 495 kts 126°
2026-05-01 09:21 39.48177 -71.55220 30481 ft 496 kts 126°
2026-05-01 09:21 39.46338 -71.51445 30711 ft 496 kts 127°
2026-05-01 09:21 39.42658 -71.43904 31091 ft 496 kts 127°
2026-05-01 09:22 39.38968 -71.36361 31406 ft 497 kts 127°
2026-05-01 09:22 39.35243 -71.28778 31543 ft 502 kts 127°
2026-05-01 09:23 39.33370 -71.24968 31676 ft 503 kts 127°
2026-05-01 09:23 39.29620 -71.17347 31984 ft 503 kts 127°
2026-05-01 09:24 39.25857 -71.09727 32276 ft 504 kts 127°
2026-05-01 09:24 39.23972 -71.05910 32422 ft 504 kts 127°
2026-05-01 09:24 39.20197 -70.98284 32700 ft 505 kts 127°
2026-05-01 09:25 39.16439 -70.90713 32928 ft 506 kts 127°
2026-05-01 09:26 39.10750 -70.79287 32910 ft 504 kts 128°
2026-05-01 09:26 39.05058 -70.67898 32906 ft 504 kts 128°
2026-05-01 09:27 38.99361 -70.56527 32901 ft 504 kts 128°
2026-05-01 09:28 38.95556 -70.48973 32900 ft 502 kts 128°
2026-05-01 09:28 38.91757 -70.41439 32900 ft 502 kts 128°
2026-05-01 09:29 38.86053 -70.30158 32904 ft 502 kts 128°
2026-05-01 09:30 38.80344 -70.18901 32895 ft 501 kts 128°
2026-05-01 09:30 38.74639 -70.07696 32907 ft 500 kts 128°
2026-05-01 09:31 38.70816 -70.00213 32889 ft 505 kts 129°
2026-05-01 09:32 38.65026 -69.88912 32897 ft 507 kts 129°
2026-05-01 09:32 38.59219 -69.77610 32896 ft 507 kts 129°
2026-05-01 09:33 38.55350 -69.70096 32901 ft 506 kts 129°
2026-05-01 09:34 38.49546 -69.58885 32900 ft 506 kts 129°
2026-05-01 09:34 38.43711 -69.47657 32893 ft 504 kts 129°
2026-05-01 09:35 38.37902 -69.36476 32869 ft 507 kts 129°
2026-05-01 09:36 38.33987 -69.28957 32894 ft 510 kts 129°
2026-05-01 09:36 38.30047 -69.21439 32889 ft 510 kts 129°
2026-05-01 09:37 38.26106 -69.13925 32882 ft 510 kts 129°
2026-05-01 09:37 38.20191 -69.02675 32895 ft 510 kts 129°
2026-05-01 09:38 38.14938 -68.92704 32887 ft 510 kts 129°
2026-05-01 09:39 38.09003 -68.81509 32866 ft 509 kts 130°
2026-05-01 09:39 38.05059 -68.74059 32849 ft 509 kts 130°
2026-05-01 09:40 37.99075 -68.62838 32871 ft 513 kts 130°
2026-05-01 09:41 37.95080 -68.55349 32865 ft 513 kts 130°
2026-05-01 09:41 37.89071 -68.44137 32857 ft 513 kts 130°
2026-05-01 09:42 37.85067 -68.36662 32864 ft 513 kts 130°
2026-05-01 09:43 37.77026 -68.21745 32855 ft 513 kts 130°
2026-05-01 09:43 37.72982 -68.14268 32839 ft 517 kts 130°
2026-05-01 09:44 37.66860 -68.02961 32844 ft 524 kts 131°
2026-05-01 09:45 37.62734 -67.95373 32849 ft 524 kts 131°
2026-05-01 09:45 37.56536 -67.84013 32844 ft 524 kts 131°
2026-05-01 09:46 37.52405 -67.76459 32839 ft 524 kts 131°
2026-05-01 09:46 37.48263 -67.68906 32834 ft 524 kts 131°
2026-05-01 09:47 37.44116 -67.61370 32820 ft 524 kts 131°
2026-05-01 09:47 37.39963 -67.53836 32802 ft 524 kts 131°
2026-05-01 09:48 37.35821 -67.46332 32773 ft 523 kts 131°
2026-05-01 09:48 37.31676 -67.38843 32804 ft 528 kts 131°
2026-05-01 09:49 37.27483 -67.31266 32820 ft 528 kts 131°
2026-05-01 09:49 37.23295 -67.23697 32806 ft 528 kts 131°
2026-05-01 09:50 37.19110 -67.16161 32806 ft 525 kts 131°
2026-05-01 09:50 37.14925 -67.08677 32804 ft 524 kts 131°
2026-05-01 09:51 37.10745 -67.01203 32801 ft 523 kts 131°
2026-05-01 09:51 37.06562 -66.93738 32803 ft 524 kts 131°
2026-05-01 09:52 37.02378 -66.86278 32786 ft 522 kts 131°
2026-05-01 09:52 36.98195 -66.78832 32772 ft 525 kts 131°
2026-05-01 09:53 36.93971 -66.71360 32793 ft 526 kts 131°
2026-05-01 09:53 36.89750 -66.63894 32798 ft 526 kts 131°
2026-05-01 09:54 36.85525 -66.56443 32777 ft 525 kts 131°
2026-05-01 09:54 36.81309 -66.49020 32794 ft 523 kts 131°
2026-05-01 09:55 36.77082 -66.41598 32803 ft 526 kts 131°
2026-05-01 09:55 36.72872 -66.34210 32798 ft 522 kts 131°
2026-05-01 09:56 36.68657 -66.26847 32795 ft 521 kts 131°
2026-05-01 09:56 36.64452 -66.19505 32745 ft 520 kts 131°
2026-05-01 09:57 36.60277 -66.12227 32783 ft 520 kts 131°
2026-05-01 09:57 36.56066 -66.04906 32772 ft 520 kts 131°
2026-05-01 09:58 36.51847 -65.97599 32782 ft 520 kts 131°
2026-05-01 09:58 36.47629 -65.90302 32781 ft 519 kts 131°
2026-05-01 09:59 36.43419 -65.83021 32787 ft 519 kts 131°
2026-05-01 09:59 36.39202 -65.75756 32794 ft 519 kts 131°
2026-05-01 10:00 36.34983 -65.68502 32791 ft 519 kts 131°
2026-05-01 10:00 36.30745 -65.61247 32776 ft 519 kts 131°
2026-05-01 10:01 36.26526 -65.54019 32776 ft 517 kts 131°
2026-05-01 10:01 36.22332 -65.46845 32016 ft 512 kts 131°
2026-05-01 10:02 36.20238 -65.43277 31309 ft 511 kts 131°
2026-05-01 10:02 36.18164 -65.39741 30946 ft 506 kts 131°
2026-05-01 10:02 36.16101 -65.36228 30821 ft 504 kts 131°
2026-05-01 10:02 36.14043 -65.32722 30793 ft 503 kts 131°
2026-05-01 10:03 36.09932 -65.25734 30790 ft 501 kts 131°
2026-05-01 10:03 36.05830 -65.18784 30811 ft 500 kts 131°
2026-05-01 10:04 36.01725 -65.11845 30811 ft 500 kts 131°
2026-05-01 10:04 35.97616 -65.04915 30814 ft 500 kts 131°
2026-05-01 10:05 35.93503 -64.97994 30805 ft 500 kts 131°
2026-05-01 10:05 35.89395 -64.91079 30809 ft 500 kts 130°
2026-05-01 10:06 35.85280 -64.84172 30810 ft 500 kts 130°
2026-05-01 10:06 35.81155 -64.77269 30810 ft 500 kts 131°
2026-05-01 10:07 35.77028 -64.70377 30831 ft 500 kts 131°
2026-05-01 10:07 35.72897 -64.63490 30821 ft 500 kts 131°
2026-05-01 10:08 35.66696 -64.53167 30819 ft 500 kts 131°
2026-05-01 10:09 35.62583 -64.46354 30827 ft 500 kts 131°
2026-05-01 10:09 35.58440 -64.39493 30833 ft 500 kts 131°
2026-05-01 10:10 35.54304 -64.32647 30818 ft 496 kts 130°
2026-05-01 10:10 35.48106 -64.22427 30832 ft 495 kts 131°
2026-05-01 10:11 35.44013 -64.15691 30843 ft 496 kts 131°
2026-05-01 10:11 35.39887 -64.08921 30850 ft 496 kts 131°
2026-05-01 10:12 35.36431 -64.03253 30836 ft 494 kts 130°
2026-05-01 10:13 35.29561 -63.92027 30840 ft 494 kts 131°
2026-05-01 10:13 35.25466 -63.85358 30843 ft 493 kts 131°
2026-05-01 10:14 35.19278 -63.75288 30829 ft 496 kts 131°
2026-05-01 10:14 35.15131 -63.68553 30845 ft 495 kts 131°
2026-05-01 10:15 35.10980 -63.61826 30850 ft 496 kts 131°
2026-05-01 10:15 35.06816 -63.55094 30856 ft 496 kts 131°